Location: Newark
(48.9320°N, 2.2664°E)
Time: 00:13:16
(UTC+00:00)

Vanguard 1 Rocket - Pass Details

Date: 26 February 2020
Orbit: 650 x 4226 km, 34.3° (Epoch: 08 April)

Event Time Altitude Azimuth Distance (km) Brightness Sun altitude
Rises 00:55:59 0° 227° (SW) 5,908 - -48.6°
Reaches altitude 10° 01:01:43 10° 214° (SSW) 4,188 - -48.3°
Maximum altitude 01:08:28 20° 172° (S) 2,628 - -47.8°
Drops below altitude 10° 01:13:10 10° 127° (SE) 2,761 - -47.5°
Sets 01:15:57 0° 109° (ESE) 3,412 - -47.3°
